Regional Weather Roundup
Issued by NWS Cleveland, OH

Home | Current Version | Previous Version | Text Only | Print | Product List | Glossary Off
Versions: 1 2 3 4 5 6 7 8 9 10 11 12 13 14 15 16 17 18 19 20 21 22 23 24 25 26 27 28 29 30 31 32 33 34 35 36 37 38 39 40 41 42 43 44 45 46 47 48 49 50

000
ASUS41 KCLE 171012
RWRCLE
OHIO REGIONAL WEATHER ROUNDUP
NATIONAL WEATHER SERVICE WILMINGTON, OH
500 AM EST WED JAN 17 2018

NOTE: "FAIR" INDICATES FEW OR NO CLOUDS BELOW 12,000 FEET WITH NO
SIGNIFICANT WEATHER AND/OR OBSTRUCTIONS TO VISIBILITY.

OHZ001>008-015>018-024>027-034-035-043-044-171100-
   NORTHWEST OHIO

CITY           SKY/WX    TMP DP  RH WIND       PRES   REMARKS
DEFIANCE       MOCLDY     2  -2  83 SW5       30.51R WCI  -8
FINDLAY        CLOUDY     8   3  80 SW6       30.49S WCI  -2
TOLEDO EXPRESS FAIR       3   1  91 W7        30.48F WCI  -9
TOLEDO EXEC    CLOUDY     5   0  79 SW9       30.50S WCI  -9
LIMA           CLOUDY     9   6  88 SW8       30.48S WCI  -3
$$

OHZ009>014-019>023-028>033-038-089-171100-
   NORTHEAST OHIO

CITY           SKY/WX    TMP DP  RH WIND       PRES   REMARKS
CLE-HOPKINS    FLURRIES   5   0  79 SW7       30.50S WCI  -7
CLE-LAKEFRONT  CLOUDY     6   0  76 SW10      30.49S WCI  -9
CUY CO. ARPT   NOT AVBL
LORAIN-ELYRIA  CLOUDY     4  -3  73 SW10      30.48S WCI -11
ASHTABULA      CLOUDY     2  -2  83 S7        30.45S WCI -11
AKRON-CANTON   MOCLDY     1  -4  79 W7        30.45R WCI -12
WOOSTER        LGT SNOW   2  -1  88 W7        30.46S FOG     WCI -11
MANSFIELD      CLOUDY     5   3  91 SW8       30.44F FOG     WCI  -8
YOUNGSTOWN     FAIR       0  -4  83 SW7       30.43S WCI -13
$$

OHZ042-051>053-060>062-070>072-077>081-171100-
  SOUTHWEST OHIO

CITY           SKY/WX    TMP DP  RH WIND       PRES   REMARKS
CINC-COVINGTON FLURRIES   8   5  87 W6        30.52S WCI  -2
CINC-LUNKEN    LGT SNOW  10   6  84 SW3       30.58F FOG
HAMILTON       CLOUDY     9   4  80 W7        30.57S WCI  -2
DAYTON         CLOUDY     7   4  87 SW7       30.51S WCI  -5
WRIGHT-PAT AFB FLURRIES   8   2  76 SW7       30.52S WCI  -3
DAYTON GENERAL CLOUDY     7   3  84 SW5       30.51S FOG     WCI  -2
WILMINGTON     CLOUDY     7   6  96 SW3       30.49F
$$

OHZ036-037-039>041-045>050-054>059-063>069-073>076-082>088-171100-
  CENTRAL AND SOUTHEAST OHIO

CITY           SKY/WX    TMP DP  RH WIND       PRES   REMARKS
COLUMBUS       LGT SNOW   8   4  83 W7        30.52S FOG     WCI  -3
OSU AIRPORT    CLOUDY     8   4  83 SW5       30.51S WCI   0
BOLTON FIELD   LGT SNOW   7   3  84 CALM      30.52S
RICKENBACK AFB CLOUDY     7   3  86 W7        30.53S WCI  -5
NEWARK         CLOUDY     7   2  80 SW5       30.51S WCI  -2
MARION         CLOUDY     7   3  84 S3        30.49S FOG
LANCASTER      FLURRIES   6   1  80 W3        30.52S
ZANESVILLE     CLOUDY     5   0  79 NW6       30.52R WCI  -6
NEW PHILLY     CLOUDY     2  -1  88 CALM      30.51S
$$




USA.gov is the U.S. government's official web portal to all federal, state and local government web resources and services.